ICEYE-X4 (44390 NORAD) Tracking and Keplerian Element Data

This shows tracking and keplerian element data for the satellite.

Feedback or suggestion? Click here.




ElementValue
Catalog44390
NameICEYE-X4
Epoch Orbit195
Epoch Day199.40473075
Epoch Year2019
RAAN161.2841
Inclination97.6807
Eccentricity0.0020227
Argument of Perigee189.2868
Mean Anonmoly170.7982
Mean Motion14.96481211
Decay Rate-5.05E-06
L11 44390U 19038D 19199.40473075 -.00000505 00000-0 -39242-4 0 9996
L22 44390 97.6807 161.2841 0020227 189.2868 170.7982 14.96481211 1953

Live tracking and technical data element details for ICEYE-X4 (NORAD 44390). ICEYE-X4 can be tracked NOW for your location showing map with azimuth and elevation plus other details from your city location.

Track the satellite on the map from your city or location and see movement details for azimuth, elevation, latitude, longitude, range, height, and movement on the map or in text.







IsCatalogInMostPopularTable: catalog: 44390, numindb: 3
Update: records affected: 1



GetName: 44390 ICEYE-X4

Hit Count: updated at: Fri, 19 Jul 2019 08:13:37 GMT